CZ-6A DEB, 56634

Orbit data source: Space-Track

CZ-6A DEB, 56634 is space debris in SSO originally from a launch on Fri, 11 Nov 2022 UTC launched from the Taiyaun Space Center, China (TSC). Debris objects in space refer to the collection of defunct objects orbiting the Earth. Examples of debris include non-operational satellites, rocket bodies, and fragments generated from explosions, collisions, or faulty payload assembly.

Loading next visibility...
Identifier
56634, 2022-151AFJ
Orbit
SSO
Country
Flag of CNCN / PRC
Related business
Manufacturer
SAST
Mission
Spacecraft
Bus & Motor
Unknown
Mass
Unknown
Launch date (UTC)
2022-11-11 (4 years ago)
Launch vehicle
Unknown
Launch site
Taiyaun Space Center, China (TSC)
Object type
Payload
Rocket body
Debris
Shape & HBR
Unknown shape, 0.1 m
Radar Cross Section
Small (<0.1 m²)

Expand to show TLE details & history
Last TLE update: 20 hours ago

TLE from 20 hours ago
0 CZ-6A DEB
1 56634U 22151AFJ 26265.02225240  .00000110  00000-0  70196-4 0  9992
2 56634  98.7745 287.8774 0013554 110.5147 249.7486 14.21730176177384
Epoch: 2026-09-22T00:32Z
TLE epoch observation values (Epoch: 2026-09-22T00:32:02.607Z)
Latitude
-0.00004°
Longitude
-81.02715°
Altitude
825.811 km
Speed
7.438 km/s
True Right ascension
19h 11m 30s
True Declination
0° 00' 00"
Sunlit
Object was in daylight at epoch
Visualization orbit readout
Latitude
Unknown
Longitude
Unknown
Altitude
Unknown
Speed
Unknown
Apparent Right ascension
Unknown
Apparent Declination
Unknown
Sunlit
N/A
Visualization observer readout
Local Sidereal Time
13:42:44
Azimuth
Unknown
Elevation
Unknown
Doppler factor
Unknown
Orbital elements
Apogee altitude
826.419 km
Perigee altitude
806.915 km
Semi-major axis
7,194.804 km
Eccentricity
0.00136
Inclination
98.7745°
RAAN
287.8774°
Arg. of periapsis
110.5147°
True anomaly
249.60297°
Mean anomaly
249.7486°
Eccentric anomaly
249.67578°
Mean motion
3.55643 °/min
Orbital period
101.22 mins
BSTAR
0.000070196
Loading maneuver chart data...
Computing Atmospheric mass density...
Loading historical data...
Loading historical data...
Loading historical data...
Loading historical data...
Loading historical data...
Loading historical data...
Loading historical data...

Documentation

Showing up to 5 results
|